TimeEDT,TemperatureF,Dew PointF,Humidity,Sea Level PressureIn,VisibilityMPH,Wind Direction,Wind SpeedMPH,Gust SpeedMPH,PrecipitationIn,Events,Conditions,WindDirDegrees,DateUTC
12:15 AM,66.2,64.9,96,30.25,10.0,Calm,Calm,-,N/A,Rain,Rain,0,2013-07-31 04:15:00
12:35 AM,66.2,65.3,97,30.25,7.0,Calm,Calm,-,N/A,Rain,Light Rain,0,2013-07-31 04:35:00
12:55 AM,66.2,65.5,98,30.25,10.0,Calm,Calm,-,N/A,,Drizzle,0,2013-07-31 04:55:00
1:15 AM,65.8,65.3,98,30.24,10.0,Calm,Calm,-,N/A,,Drizzle,0,2013-07-31 05:15:00
1:35 AM,65.7,65.3,99,30.24,7.0,Calm,Calm,-,N/A,Rain,Light Rain,0,2013-07-31 05:35:00
1:55 AM,65.7,65.5,99,30.23,7.0,Calm,Calm,-,N/A,,Light Drizzle,0,2013-07-31 05:55:00
2:15 AM,65.5,65.3,99,30.23,7.0,Calm,Calm,-,N/A,,Overcast,0,2013-07-31 06:15:00
2:35 AM,65.3,65.3,100,30.23,10.0,Calm,Calm,-,N/A,,Overcast,0,2013-07-31 06:35:00
2:55 AM,65.3,65.3,100,30.22,7.0,Calm,Calm,-,N/A,,Overcast,0,2013-07-31 06:55:00
3:15 AM,65.3,64.8,98,30.21,7.0,Calm,Calm,-,N/A,,Overcast,0,2013-07-31 07:15:00
3:35 AM,64.9,64.6,99,30.22,5.0,Calm,Calm,-,N/A,,Overcast,0,2013-07-31 07:35:00
3:55 AM,64.6,64.4,99,30.21,7.0,Calm,Calm,-,N/A,,Overcast,0,2013-07-31 07:55:00
4:15 AM,64.6,64.4,99,30.21,10.0,Calm,Calm,-,N/A,,Overcast,0,2013-07-31 08:15:00
4:35 AM,64.6,64.2,99,30.21,7.0,Calm,Calm,-,N/A,,Overcast,0,2013-07-31 08:35:00
4:55 AM,64.4,63.9,98,30.20,7.0,Calm,Calm,-,N/A,,Overcast,0,2013-07-31 08:55:00
5:15 AM,64.4,63.9,98,30.20,5.0,Calm,Calm,-,N/A,,Overcast,0,2013-07-31 09:15:00
5:35 AM,64.4,63.9,98,30.20,7.0,Calm,Calm,-,N/A,,Overcast,0,2013-07-31 09:35:00
5:55 AM,64.4,63.9,98,30.21,7.0,Calm,Calm,-,N/A,,Overcast,0,2013-07-31 09:55:00
6:15 AM,64.0,63.7,99,30.20,4.0,Calm,Calm,-,N/A,,Overcast,0,2013-07-31 10:15:00
6:35 AM,63.9,63.5,99,30.21,7.0,Calm,Calm,-,N/A,,Overcast,0,2013-07-31 10:35:00
6:55 AM,63.7,63.1,98,30.21,7.0,Calm,Calm,-,N/A,,Overcast,0,2013-07-31 10:55:00
7:15 AM,63.7,63.5,99,30.22,7.0,Calm,Calm,-,N/A,Rain,Light Rain,0,2013-07-31 11:15:00
7:35 AM,63.9,63.5,99,30.22,2.0,Calm,Calm,-,N/A,,Overcast,0,2013-07-31 11:35:00
7:55 AM,64.0,63.7,99,30.22,7.0,Calm,Calm,-,N/A,,Light Drizzle,0,2013-07-31 11:55:00
8:15 AM,64.4,64.2,99,30.23,5.0,Calm,Calm,-,N/A,Rain,Light Rain,0,2013-07-31 12:15:00
8:35 AM,64.4,64.0,99,30.22,7.0,Calm,Calm,-,N/A,Rain,Rain,0,2013-07-31 12:35:00
8:55 AM,64.4,64.4,100,30.23,7.0,Calm,Calm,-,N/A,,Overcast,0,2013-07-31 12:55:00
9:15 AM,64.6,64.6,100,30.23,10.0,Calm,Calm,-,N/A,,Overcast,0,2013-07-31 13:15:00
9:35 AM,65.3,65.3,100,30.23,10.0,Calm,Calm,-,N/A,,Overcast,0,2013-07-31 13:35:00
9:55 AM,65.5,65.5,100,30.22,10.0,Calm,Calm,-,N/A,,Overcast,0,2013-07-31 13:55:00
10:15 AM,65.8,65.8,100,30.22,10.0,Calm,Calm,-,N/A,,Overcast,0,2013-07-31 14:15:00
10:35 AM,66.6,66.6,100,30.22,10.0,Calm,Calm,-,N/A,,Overcast,0,2013-07-31 14:35:00
10:55 AM,67.6,67.6,100,30.21,10.0,Calm,Calm,-,N/A,,Overcast,0,2013-07-31 14:55:00
11:35 AM,70.7,64.9,82,30.20,10.0,Calm,Calm,-,N/A,,Overcast,0,2013-07-31 15:35:00
11:55 AM,71.1,64.4,79,30.19,10.0,Calm,Calm,-,N/A,,Overcast,0,2013-07-31 15:55:00
12:15 PM,72.1,65.8,80,30.18,10.0,Calm,Calm,-,N/A,,Overcast,0,2013-07-31 16:15:00
12:35 PM,73.4,65.7,77,30.17,10.0,East,3.5,-,N/A,,Mostly Cloudy,100,2013-07-31 16:35:00
12:55 PM,73.0,63.1,71,30.17,10.0,SSE,3.5,-,N/A,,Overcast,160,2013-07-31 16:55:00
1:15 PM,73.2,63.3,71,30.17,10.0,Calm,Calm,-,N/A,,Overcast,0,2013-07-31 17:15:00
1:35 PM,73.8,63.7,71,30.16,10.0,Calm,Calm,-,N/A,,Overcast,0,2013-07-31 17:35:00
1:55 PM,74.5,64.2,70,30.15,10.0,SSE,6.9,-,N/A,,Overcast,150,2013-07-31 17:55:00
2:15 PM,73.0,63.5,72,30.15,10.0,SSE,4.6,-,N/A,,Overcast,160,2013-07-31 18:15:00
2:35 PM,71.8,63.7,76,30.15,10.0,Calm,Calm,-,N/A,,Overcast,0,2013-07-31 18:35:00
2:55 PM,71.6,63.7,76,30.14,10.0,SE,3.5,-,N/A,,Overcast,140,2013-07-31 18:55:00
3:15 PM,71.1,63.7,77,30.14,10.0,Calm,Calm,-,N/A,,Overcast,0,2013-07-31 19:15:00
3:35 PM,70.7,63.5,78,30.13,10.0,Calm,Calm,-,N/A,,Overcast,0,2013-07-31 19:35:00
3:55 PM,71.8,64.2,77,30.12,10.0,SE,3.5,-,N/A,,Overcast,130,2013-07-31 19:55:00
4:15 PM,72.1,63.7,75,30.11,10.0,Calm,Calm,-,N/A,,Overcast,0,2013-07-31 20:15:00
4:35 PM,72.0,64.0,76,30.10,10.0,Calm,Calm,-,N/A,,Overcast,0,2013-07-31 20:35:00
4:55 PM,73.2,64.4,74,30.10,10.0,Calm,Calm,-,N/A,,Overcast,0,2013-07-31 20:55:00
5:15 PM,73.4,64.8,74,30.08,10.0,Calm,Calm,-,N/A,,Overcast,0,2013-07-31 21:15:00
5:35 PM,74.8,64.4,70,30.07,10.0,Calm,Calm,-,N/A,,Mostly Cloudy,0,2013-07-31 21:35:00
5:55 PM,74.5,63.5,68,30.07,10.0,Calm,Calm,-,N/A,,Mostly Cloudy,0,2013-07-31 21:55:00
6:15 PM,73.6,64.6,73,30.07,10.0,North,3.5,-,N/A,,Mostly Cloudy,350,2013-07-31 22:15:00
6:35 PM,72.9,64.8,76,30.06,10.0,Calm,Calm,-,N/A,,Overcast,0,2013-07-31 22:35:00
6:55 PM,72.5,64.9,77,30.06,10.0,North,3.5,-,N/A,,Overcast,10,2013-07-31 22:55:00
7:15 PM,71.6,64.9,79,30.06,10.0,Calm,Calm,-,N/A,,Overcast,0,2013-07-31 23:15:00
7:35 PM,71.1,65.3,82,30.06,10.0,Calm,Calm,-,N/A,,Overcast,0,2013-07-31 23:35:00
7:55 PM,71.2,65.1,81,30.07,10.0,Calm,Calm,-,N/A,,Overcast,0,2013-07-31 23:55:00
8:15 PM,70.9,65.3,82,30.08,10.0,Calm,Calm,-,N/A,,Overcast,0,2013-08-01 00:15:00
8:35 PM,70.0,66.4,88,30.09,10.0,Calm,Calm,-,N/A,,Overcast,0,2013-08-01 00:35:00
8:55 PM,69.8,67.1,91,30.09,10.0,Calm,Calm,-,N/A,,Overcast,0,2013-08-01 00:55:00
9:15 PM,68.9,67.6,96,30.09,10.0,Calm,Calm,-,N/A,,Overcast,0,2013-08-01 01:15:00
9:35 PM,68.9,66.7,93,30.09,7.0,Calm,Calm,-,N/A,,Overcast,0,2013-08-01 01:35:00
9:55 PM,68.2,67.1,96,30.09,10.0,Calm,Calm,-,N/A,,Overcast,0,2013-08-01 01:55:00
10:15 PM,68.2,67.8,99,30.09,10.0,Calm,Calm,-,N/A,,Overcast,0,2013-08-01 02:15:00
10:35 PM,68.0,67.6,99,30.09,10.0,Calm,Calm,-,N/A,,Mostly Cloudy,0,2013-08-01 02:35:00
10:55 PM,67.1,66.7,99,30.08,7.0,Calm,Calm,-,N/A,,Mostly Cloudy,0,2013-08-01 02:55:00
11:15 PM,66.4,66.2,99,30.09,7.0,Calm,Calm,-,N/A,,Overcast,0,2013-08-01 03:15:00
11:35 PM,66.6,66.4,99,30.09,7.0,Calm,Calm,-,N/A,,Overcast,0,2013-08-01 03:35:00
11:55 PM,67.1,66.7,99,30.08,10.0,Calm,Calm,-,N/A,,Overcast,0,2013-08-01 03:55:00